Regional Weather Roundup
Issued by NWS

Home | Current Version | Previous Version | Graphics & Text | Print | Product List | Glossary On
Versions: 1 2 3 4 5 6 7 8 9 10 11 12 13 14 15 16 17 18 19 20 21 22 23 24 25 26 27 28 29 30 31 32 33 34 35 36 37 38 39 40 41 42 43 44 45 46 47 48 49 50
000
ASUS43 KLSX 210207
RWRMO

WEATHER SUMMARY FOR MISSOURI
NATIONAL WEATHER SERVICE SPRINGFIELD MO
900 PM CDT SUN APR 20 2014

NOTE: "FAIR" INDICATES FEW OR NO CLOUDS BELOW 12,000 FEET WITH NO
       SIGNIFICANT WEATHER AND/OR OBSTRUCTIONS TO VISIBILITY.
       CURRENT SKY AND/OR WEATHER CONDITIONS ARE NOT AVAILABLE FOR
       CHILLICOTHE AND FARMINGTON.

MOZ001>031-035>038-043-044-053-054-210300-
...NORTHERN AND WESTERN MISSOURI...

CITY           SKY/WX    TMP DP  RH WIND       PRES   REMARKS
KANSAS CTY INT CLOUDY    67  54  63 S7        30.01R
KANSAS C DTWN  CLOUDY    70  53  54 S8        30.00R
LEE`S SUMMIT   MOCLDY    68  52  56 S6        30.02R
ST JOSEPH      CLOUDY    69  55  60 SW7       29.99R
CHILLICOTHE      N/A     72  50  45 S8        30.01R
KIRKSVILLE     MOCLDY    68  48  48 S6        30.01R

$$
MOZ066>068-077>081-088>096-101>105-210300-
...SOUTHWEST MISSOURI...

CITY           SKY/WX    TMP DP  RH WIND       PRES   REMARKS
SPRINGFIELD    MOCLDY    64  51  62 SW7       30.05R
JOPLIN         MOCLDY    65  52  62 S6        30.05R

$$
MOZ032>034-039>042-045>050-055>058-069>072-210300-
...CENTRAL MISSOURI...

CITY           SKY/WX    TMP DP  RH WIND       PRES   REMARKS
COLUMBIA       CLOUDY    70  50  49 S6        30.03R
JEFFERSON CITY CLOUDY    74  49  41 S3        30.02R
ROLLA          PTCLDY    66  48  52 S6        30.04R
SEDALIA        CLOUDY    70  54  56 SW5       30.03S
WHITEMAN AFB   CLOUDY    67  52  58 S5        30.02F
OSAGE BEACH    CLOUDY    70  48  46 CALM      30.05S

$$
MOZ051-052-059>065-210300-
...EAST CENTRAL MISSOURI...

CITY           SKY/WX    TMP DP  RH WIND       PRES   REMARKS
ST LOUIS INTL  MOCLDY    75  43  31 SE13      30.05R
SPIRIT OF STL  CLOUDY    73  43  33 SE6       30.03R
ST CHARLES     PTCLDY    70  45  40 SE8       30.03R

$$
MOZ072>076-082>087-097>100-106>115-210300-
...SOUTH CENTRAL AND SOUTHEAST MISSOURI...

CITY           SKY/WX    TMP DP  RH WIND       PRES   REMARKS
CAPE GIRARDEAU PTCLDY    64  50  60 S6        30.08S
FARMINGTON     CLOUDY    68  43  40 S7        30.10S
POPLAR BLUFF   MOCLDY    67  51  56 CALM      30.07R
WEST PLAINS    MOCLDY    69  45  41 SE5       30.08S

$$



USA.gov is the U.S. government's official web portal to all federal, state and local government web resources and services.